This is the latest recevied weather packets stored in our database for station/object IR4UCA-3. If no packets are shown the sender has not sent any weather packets the latest 1 day(s).
| Time | Temp. | Humidity | Pressure | Rain* | Wind** | Luminosity | Snow |
|---|---|---|---|---|---|---|---|
| 1778045954 | 14.44° C | 91% | 1009.5 hPa | 1.52 mm | - | - | - |
| 1778045723 | 14.44° C | 91% | 1009.6 hPa | 1.52 mm | - | - | - |
| 1778045240 | 14.44° C | 91% | 1009.6 hPa | 1.78 mm | - | - | - |
| 1778044989 | 14.44° C | 91% | 1009.5 hPa | 2.29 mm | - | - | - |
| 1778044749 | 14.44° C | 91% | 1009.4 hPa | 2.54 mm | - | - | - |
| 1778044269 | 14.44° C | 91% | 1009.6 hPa | 3.81 mm | - | - | - |
| 1778044148 | 14.44° C | 91% | 1009.8 hPa | 4.06 mm | - | - | - |
| 1778044038 | 14.44° C | 91% | 1009.7 hPa | 4.32 mm | - | - | - |
| 1778043920 | 14.44° C | 91% | 1009.7 hPa | 4.57 mm | - | - | - |
| 1778043800 | 14.44° C | 91% | 1009.7 hPa | 4.83 mm | - | - | - |
| 1778043676 | 14.44° C | 91% | 1009.8 hPa | 5.08 mm | - | - | - |
| 1778043439 | 14.44° C | 91% | 1009.8 hPa | 5.08 mm | - | - | - |
| 1778043319 | 14.44° C | 91% | 1009.9 hPa | 5.33 mm | - | - | - |
| 1778043191 | 14.44° C | 91% | 1009.8 hPa | 5.59 mm | - | - | - |
| 1778043067 | 14.44° C | 91% | 1010 hPa | 5.33 mm | - | - | - |
| 1778042825 | 14.44° C | 91% | 1010 hPa | 5.59 mm | - | - | - |
| 1778042716 | 14.44° C | 91% | 1010 hPa | 5.84 mm | - | - | - |
| 1778042341 | 14.44° C | 91% | 1009.9 hPa | 5.59 mm | - | - | - |
| 1778042222 | 14.44° C | 91% | 1009.9 hPa | 5.59 mm | - | - | - |
| 1778042101 | 14.44° C | 91% | 1009.8 hPa | 5.59 mm | - | - | - |
| 1778041744 | 14.44° C | 91% | 1009.4 hPa | 5.08 mm | - | - | - |
| 1778041620 | 14.44° C | 91% | 1009.6 hPa | 5.08 mm | - | - | - |
| 1778041497 | 14.44° C | 91% | 1009.7 hPa | 4.83 mm | - | - | - |
| 1778041379 | 14.44° C | 91% | 1009.9 hPa | 4.32 mm | - | - | - |
| 1778041257 | 14.44° C | 90% | 1010 hPa | 4.32 mm | - | - | - |
* Rain latest hour (hover to see other rain measurements)
** Current wind speed in m/s (hover to see current wind gust speed)